Weather History for Sioux City, IA

Change the Weather History Date:

Saturday, September 28, 2013

  Actual Average Record
Temperature  
Mean Temperature 59 °F 58 °F  
Max Temperature 74 °F 71 °F 91 °F (1897)
Min Temperature 43 °F 45 °F 25 °F (1942)
Degree Days  
Heating Degree Days 6 8  
Month to date heating degree days 42 116  
Since 1 July heating degree days 62 131  
Cooling Degree Days 0 1  
Month to date cooling degree days 147 80  
Year to date cooling degree days 948 857  
Growing Degree Days 6 (Base 50)    
Moisture  
Dew Point 49 °F    
Average Humidity 65    
Maximum Humidity 93    
Minimum Humidity 37    
Precipitation  
Precipitation 0.15 in 0.09 in 1.93 in (1983)
Month to date precipitation 1.44 2.78  
Year to date precipitation 21.57 23.32  
Snow  
Snow 0.00 in 0.00 in T in (1985)
Month to date snowfall 0.0 0.0  
Since 1 July snowfall 0.0 0.0  
Since 1 September snowfall 0.0 0.0  
Snow Depth 0.00 in    
Sea Level Pressure  
Sea Level Pressure 29.85 in    
Wind  
Wind Speed 10 mph (NW)    
Max Wind Speed 21 mph    
Max Gust Speed 28 mph    
Visibility 10 miles    
Events Rain    
T = Trace of Precipitation, MM = Missing Value Source: NWS Daily Summary

Daily Weather History Graph

Daily Weather History Graph

Search for Another Location

Airport:

Trip Planner

Search our weather history database for the weather conditions in past years. The results will help you decide how hot, cold, wet, or windy it might be!

Date:

Astronomy

Sep. 28, 2013 Rise Set
Actual Time 7:19 AM CDT 7:11 PM CDT
Civil Twilight 6:51 AM CDT 7:39 PM CDT
Nautical Twilight 6:18 AM CDT 8:12 PM CDT
Astronomical Twilight 5:45 AM CDT 8:45 PM CDT
Moon 1:01 AM CDT (9/28) 3:37 PM CDT (9/28)
Length of Visible Light 12h 48m
Length of Day
11h 52m
Waning Crescent, 36% of the Moon is Illuminated
Sep 28
Waning Crescent
Oct 4
New
Oct 11
First Quarter
Oct 18
Full
Oct 26
Last Quarter

Hourly Weather History & Observations

Time (CDT) Temp. Windchill Dew Point Humidity Pressure Visibility Wind Dir Wind Speed Gust Speed Precip Events Conditions
12:52 AM 73.9 °F - 60.1 °F 62% 29.65 in 10.0 mi SSE 16.1 mph 27.6 mph N/A   Clear
1:52 AM 73.0 °F - 60.1 °F 64% 29.64 in 10.0 mi SSE 13.8 mph - N/A   Mostly Cloudy
2:24 AM 71.6 °F - 59.0 °F 64% 29.70 in 10.0 mi WNW 12.7 mph - N/A   Overcast
2:52 AM 63.0 °F - 60.1 °F 90% 29.68 in 10.0 mi NW 11.5 mph - 0.05 in   Overcast
3:52 AM 57.9 °F - 55.9 °F 93% 29.69 in 10.0 mi NNW 8.1 mph - 0.05 in Rain Light Rain
3:59 AM 57.2 °F - 55.4 °F 94% 29.71 in 10.0 mi NNW 10.4 mph - 0.00 in   Overcast
4:52 AM 57.0 °F - 55.0 °F 93% 29.70 in 10.0 mi WNW 8.1 mph - 0.00 in Rain Light Rain
5:42 AM 55.4 °F - 53.6 °F 94% 29.75 in 9.0 mi WNW 11.5 mph - 0.02 in Rain Rain
5:52 AM 55.0 °F - 53.1 °F 93% 29.73 in 8.0 mi NW 11.5 mph 23.0 mph 0.04 in Rain Rain
6:52 AM 54.0 °F - 52.0 °F 93% 29.76 in 10.0 mi WNW 12.7 mph - 0.01 in   Overcast
7:25 AM 53.6 °F - 51.8 °F 94% 29.79 in 10.0 mi WNW 11.5 mph 19.6 mph N/A   Overcast
7:52 AM 54.0 °F - 52.0 °F 93% 29.79 in 7.0 mi NW 15.0 mph - N/A   Overcast
8:44 AM 53.6 °F - 51.8 °F 94% 29.84 in 9.0 mi NW 13.8 mph - 0.00 in Rain Light Rain
8:52 AM 53.1 °F - 51.1 °F 93% 29.84 in 3.0 mi WNW 15.0 mph 23.0 mph 0.00 in Rain Light Rain
9:17 AM 51.8 °F - 50.0 °F 94% 29.86 in 10.0 mi NW 10.4 mph 20.7 mph 0.00 in   Overcast
9:52 AM 53.1 °F - 48.9 °F 86% 29.87 in 10.0 mi NW 16.1 mph 21.9 mph 0.00 in   Overcast
10:40 AM 57.2 °F - 50.0 °F 77% 29.89 in 10.0 mi NW 10.4 mph - N/A   Scattered Clouds
10:52 AM 57.0 °F - 50.0 °F 77% 29.89 in 10.0 mi NNW 12.7 mph - N/A   Scattered Clouds
11:01 AM 57.2 °F - 50.0 °F 77% 29.90 in 10.0 mi NW 10.4 mph - N/A   Mostly Cloudy
11:52 AM 57.9 °F - 46.9 °F 67% 29.91 in 10.0 mi NW 15.0 mph 21.9 mph N/A   Mostly Cloudy
12:29 PM 60.8 °F - 44.6 °F 55% 29.92 in 10.0 mi WNW 17.3 mph 24.2 mph N/A   Scattered Clouds
12:52 PM 61.0 °F - 45.0 °F 56% 29.91 in 10.0 mi NW 17.3 mph - N/A   Partly Cloudy
1:52 PM 62.1 °F - 44.1 °F 52% 29.92 in 10.0 mi WNW 15.0 mph 21.9 mph N/A   Partly Cloudy
2:52 PM 64.9 °F - 42.1 °F 43% 29.92 in 10.0 mi WNW 17.3 mph 25.3 mph N/A   Partly Cloudy
3:52 PM 66.9 °F - 43.0 °F 42% 29.94 in 10.0 mi WNW 12.7 mph 21.9 mph N/A   Partly Cloudy
4:52 PM 66.9 °F - 41.0 °F 39% 29.95 in 10.0 mi WNW 10.4 mph 17.3 mph N/A   Clear
5:52 PM 66.0 °F - 39.9 °F 38% 29.97 in 10.0 mi NW 10.4 mph 16.1 mph N/A   Clear
6:52 PM 62.1 °F - 41.0 °F 46% 29.99 in 10.0 mi West 5.8 mph - N/A   Clear
7:52 PM 54.0 °F - 43.0 °F 66% 30.01 in 10.0 mi West 3.5 mph - N/A   Clear
8:52 PM 48.9 °F - 43.0 °F 80% 30.03 in 10.0 mi Calm Calm - N/A   Clear
9:52 PM 48.0 °F - 43.0 °F 83% 30.03 in 10.0 mi ESE 3.5 mph - N/A   Clear
10:52 PM 46.9 °F - 43.0 °F 86% 30.03 in 10.0 mi ESE 4.6 mph - N/A   Clear
11:52 PM 45.0 °F 42.6 °F 42.1 °F 90% 30.03 in 10.0 mi ESE 4.6 mph - N/A   Clear